M I D A S
Marine Information and Data Acquisition System
Tripno 2150 of the Zeeleeuw from 2011-07-25 06:42:10 to 2011-07-25 13:06:22
Back to CruiseResearch ActivitiesStationsMapUnderway DataData graphs

EquipmentUnitsComments
TimeDGPSUTC
LatitudeDGPSDM.mWGS84
LongitudeDGPSDM.mWGS84
SpeedMeteo Stationm/sRelative wind speed
DirectionMeteo StationdegRelative wind direction
TemperatureMeteo Stationdeg CelciusAir temperature
PressureMeteo StationPaAtmospheric pressure
HumidityMeteo Station%Relative humidity
Missing or incorrect values are displayed as -999
Metereological data collected by the RV Zeeleeuw from 2011-07-25 06:31:22 to 2011-07-25 13:19:12
Time Latitude Longitude Speed Direction Temperature Pressure Humidity
2011-07-25 06:32 51°13.654 2°55.947 -999 35 14.8 100750 49
2011-07-25 06:33 51°13.679 2°55.856 1 37 14.9 100750 48
2011-07-25 06:34 51°13.701 2°55.777 -999 34 14.9 100740 49
2011-07-25 06:35 51°13.709 2°55.727 0.4 27 14.9 100750 48
2011-07-25 06:36 51°13.712 2°55.735 -999 24 14.9 100740 48
2011-07-25 06:37 51°13.704 2°55.725 -999 24 15 100740 48
2011-07-25 06:38 51°13.786 2°55.666 -999 326 15 100750 49
2011-07-25 06:39 51°13.93 2°55.555 -999 24 15 100740 49
2011-07-25 06:40 51°14.088 2°55.442 -999 24 15 100740 49
2011-07-25 06:41 51°14.25 2°55.315 -999 24 15 100730 49
2011-07-25 06:42 51°14.41 2°55.164 -999 325 15 100740 49
2011-07-25 06:43 51°14.578 2°55.005 -999 318 15 100720 47
2011-07-25 06:44 51°14.754 2°54.839 -999 326 15 100730 49
2011-07-25 06:45 51°14.913 2°54.635 3.9 22 15 100730 49
2011-07-25 06:46 51°15.072 2°54.43 4.1 26 15.1 100740 48
2011-07-25 06:47 51°15.23 2°54.213 -999 317 15.1 100720 49
2011-07-25 06:48 51°15.404 2°54.029 2.9 22 15.2 100740 49
2011-07-25 06:49 51°15.572 2°53.832 2.9 23 15.2 100730 48
2011-07-25 06:50 51°15.733 2°53.629 4 25 15.2 100740 49
2011-07-25 06:51 51°15.899 2°53.433 0.2 25 15.3 100740 48
2011-07-25 06:52 51°16.09 2°53.3 -999 24 15.3 100750 49
2011-07-25 06:53 51°16.275 2°53.137 -999 318 15.3 100750 49
2011-07-25 06:54 51°16.454 2°52.955 -999 24 15.3 100740 49
2011-07-25 06:55 51°16.639 2°52.802 0.1 318 15.4 100740 49
2011-07-25 06:56 51°16.835 2°52.659 2.4 23 15.4 100750 49
2011-07-25 06:57 51°17.019 2°52.501 2.2 25 15.5 100750 48
2011-07-25 06:58 51°17.218 2°52.38 0.3 316 15.5 100750 49
2011-07-25 06:59 51°17.422 2°52.284 -999 24 15.5 100750 47
2011-07-25 07:00 51°17.635 2°52.214 -999 24 15.6 100740 49
2011-07-25 07:01 51°17.848 2°52.149 1.7 29 15.6 100740 49
2011-07-25 07:02 51°18.058 2°52.072 1.6 28 15.6 100730 49
2011-07-25 07:03 51°18.278 2°52.057 -999 24 15.6 100750 49
2011-07-25 07:04 51°18.493 2°52.048 -999 24 15.6 100750 49
2011-07-25 07:05 51°18.706 2°52.04 0.1 325 15.6 100760 49
2011-07-25 07:06 51°18.922 2°52.027 0.1 322 15.7 100740 49
2011-07-25 07:07 51°19.144 2°52.05 1.6 317 15.7 100750 47
2011-07-25 07:08 51°19.365 2°52.056 -999 319 15.7 100730 49
2011-07-25 07:09 51°19.588 2°52.075 0.8 25 15.6 100740 49
2011-07-25 07:10 51°19.809 2°52.085 0.9 317 15.7 100740 48
2011-07-25 07:11 51°20.031 2°52.092 -999 320 15.7 100720 49
2011-07-25 07:12 51°20.253 2°52.105 0.1 325 15.7 100740 49
2011-07-25 07:13 51°20.472 2°52.112 -999 24 15.7 100750 48
2011-07-25 07:14 51°20.686 2°52.095 0.1 317 15.7 100720 49
2011-07-25 07:15 51°20.903 2°52.098 -999 24 15.7 100740 47
2011-07-25 07:16 51°21.121 2°52.083 1.6 22 15.7 100750 49
2011-07-25 07:17 51°21.342 2°52.088 0.1 317 15.7 100740 49
2011-07-25 07:18 51°21.563 2°52.084 -999 322 15.7 100740 49
2011-07-25 07:19 51°21.784 2°52.074 3.3 317 15.7 100740 48
2011-07-25 07:20 51°22.007 2°52.081 2.1 317 15.7 100740 48
2011-07-25 07:21 51°22.23 2°52.07 2.3 22 15.7 100740 50
2011-07-25 07:22 51°22.454 2°52.069 3.4 27 15.7 100750 48
2011-07-25 07:23 51°22.677 2°52.07 1.4 28 15.7 100750 48
2011-07-25 07:24 51°22.907 2°52.079 2.2 318 15.7 100750 50
2011-07-25 07:25 51°23.124 2°52.066 1.3 21 15.8 100750 49
2011-07-25 07:26 51°23.346 2°52.06 1.8 316 15.8 100760 49
2011-07-25 07:27 51°23.569 2°52.06 1.6 27 15.8 100740 48
2011-07-25 07:28 51°23.789 2°52.035 -999 24 15.8 100750 49
2011-07-25 07:29 51°24.009 2°52.026 0.1 24 15.7 100750 50
2011-07-25 07:30 51°24.225 2°52.012 -999 24 15.8 100740 50
2011-07-25 07:31 51°24.44 2°51.989 -999 24 15.8 100760 48
2011-07-25 07:32 51°24.662 2°51.981 -999 321 15.8 100740 49
2011-07-25 07:33 51°24.881 2°51.974 -999 323 15.8 100740 49
2011-07-25 07:34 51°25.105 2°51.993 0.1 325 15.9 100740 49
2011-07-25 07:35 51°25.327 2°52.002 0.9 315 15.9 100740 49
2011-07-25 07:36 51°25.553 2°52.019 1.3 316 15.9 100740 49
2011-07-25 07:37 51°25.776 2°52.036 0.1 24 15.9 100750 50
2011-07-25 07:38 51°25.995 2°52.036 -999 316 15.9 100750 49
2011-07-25 07:39 51°26.221 2°52.049 1.4 326 16 100740 48
2011-07-25 07:40 51°26.442 2°52.059 -999 320 15.9 100750 49
2011-07-25 07:41 51°26.606 2°52.08 -999 24 16 100740 49
2011-07-25 07:42 51°26.689 2°52.059 4.2 257 15.9 100730 49
2011-07-25 07:43 51°26.718 2°51.978 6 26 16 100730 48
2011-07-25 07:44 51°26.735 2°51.973 4.4 20 16 100740 48
2011-07-25 07:45 51°26.757 2°51.988 4.5 23 16 100740 48
2011-07-25 07:46 51°26.774 2°52.003 4.9 21 16.1 100740 48
2011-07-25 07:47 51°26.774 2°52.003 5.4 317 16.1 100730 47
2011-07-25 07:48 51°26.771 2°52.002 4.3 321 16.1 100740 49
2011-07-25 07:49 51°26.772 2°52.004 4.9 321 16.1 100740 50
2011-07-25 07:50 51°26.773 2°52.007 4.9 318 16.1 100730 49
2011-07-25 07:51 51°26.773 2°52.006 4.5 319 16.1 100750 47
2011-07-25 07:52 51°26.772 2°52.004 5 21 16 100730 47
2011-07-25 07:53 51°26.773 2°52.003 4.1 319 16 100750 49
2011-07-25 07:54 51°26.773 2°52.006 3.8 318 16 100730 47
2011-07-25 07:55 51°26.773 2°52.005 5 316 16 100740 46
2011-07-25 07:56 51°26.773 2°52.005 4.9 320 16 100740 47
2011-07-25 07:57 51°26.772 2°52.005 4.8 317 16 100740 47
2011-07-25 07:58 51°26.772 2°52.006 4.5 22 16 100730 49
2011-07-25 07:59 51°26.772 2°52.006 4.5 28 16 100730 49
2011-07-25 08:00 51°26.773 2°52.005 5 22 16 100740 49
2011-07-25 08:01 51°26.773 2°52.005 4.6 317 16 100740 48
2011-07-25 08:02 51°26.773 2°52.007 4.9 319 16.1 100740 49
2011-07-25 08:03 51°26.772 2°52.007 4.5 328 16.1 100740 48
2011-07-25 08:04 51°26.771 2°52.01 5.8 328 16 100750 47
2011-07-25 08:05 51°26.77 2°52.01 4.9 324 16 100740 48
2011-07-25 08:06 51°26.772 2°52.009 5.3 321 16 100740 47
2011-07-25 08:07 51°26.772 2°52.007 5.5 320 16 100750 48
2011-07-25 08:08 51°26.773 2°52.005 4.1 321 16 100740 47
2011-07-25 08:09 51°26.773 2°52.006 5 323 16.1 100740 47
2011-07-25 08:10 51°26.773 2°52.007 4.8 321 16 100740 48
2011-07-25 08:11 51°26.772 2°52.008 5.9 322 16.1 100750 47
2011-07-25 08:12 51°26.771 2°52.009 4.7 322 16.1 100730 47
2011-07-25 08:13 51°26.771 2°52.009 5 327 16.1 100720 47
2011-07-25 08:14 51°26.771 2°52.01 4.9 324 16.1 100740 49
2011-07-25 08:15 51°26.771 2°52.009 5.1 321 16.1 100730 47
2011-07-25 08:16 51°26.772 2°52.007 4.6 318 16.1 100720 47
2011-07-25 08:17 51°26.772 2°52.007 5.3 326 16.1 100740 49
2011-07-25 08:18 51°26.773 2°52.007 4 322 16.1 100740 48
2011-07-25 08:19 51°26.772 2°52.007 4.4 315 16.1 100730 45
2011-07-25 08:20 51°26.771 2°52.008 4.5 321 16 100750 46
2011-07-25 08:21 51°26.772 2°52.008 4.8 315 16.1 100730 48
2011-07-25 08:22 51°26.772 2°52.006 4.5 27 16 100750 48
2011-07-25 08:23 51°26.772 2°52.004 4.8 321 16.1 100730 48
2011-07-25 08:24 51°26.773 2°52.004 4.2 315 16.1 100750 48
2011-07-25 08:25 51°26.773 2°52.004 4 323 16.1 100740 46
2011-07-25 08:26 51°26.771 2°52.005 5.3 316 16.2 100730 47
2011-07-25 08:27 51°26.764 2°52 4.8 320 16.2 100740 44
2011-07-25 08:28 51°26.751 2°51.99 4.9 323 16.1 100740 48
2011-07-25 08:29 51°26.738 2°51.979 4.5 318 16.1 100730 48
2011-07-25 08:30 51°26.733 2°51.975 5.7 320 16.1 100740 47
2011-07-25 08:31 51°26.732 2°51.976 4.9 19 16.2 100750 46
2011-07-25 08:32 51°26.734 2°51.969 5.7 29 16.2 100750 46
2011-07-25 08:33 51°26.761 2°51.916 0.8 273 16.2 100750 48
2011-07-25 08:34 51°26.865 2°51.896 -999 249 16.3 100750 47
2011-07-25 08:35 51°27.048 2°51.823 -999 25 16.3 100750 45
2011-07-25 08:36 51°27.254 2°51.741 -999 248 16.3 100750 47
2011-07-25 08:37 51°27.459 2°51.671 -999 25 16.4 100750 47
2011-07-25 08:38 51°27.675 2°51.603 -999 24 16.4 100750 47
2011-07-25 08:39 51°27.892 2°51.52 2.2 21 16.5 100770 47
2011-07-25 08:40 51°28.112 2°51.458 2.6 25 16.4 100750 45
2011-07-25 08:41 51°28.33 2°51.384 2.1 22 16.4 100740 47
2011-07-25 08:42 51°28.547 2°51.397 0.1 334 16.5 100770 47
2011-07-25 08:43 51°28.734 2°51.614 0.1 356 16.5 100750 45
2011-07-25 08:44 51°28.919 2°51.844 1 352 16.4 100740 46
2011-07-25 08:45 51°29.109 2°52.06 0.2 337 16.4 100760 46
2011-07-25 08:46 51°29.324 2°52.193 -999 324 16.4 100760 45
2011-07-25 08:47 51°29.543 2°52.306 0.3 327 16.4 100760 47
2011-07-25 08:48 51°29.763 2°52.415 0.4 316 16.5 100760 47
2011-07-25 08:49 51°29.981 2°52.527 0.1 324 16.5 100760 46
2011-07-25 08:50 51°30.2 2°52.644 0.1 326 16.5 100750 46
2011-07-25 08:51 51°30.424 2°52.735 -999 317 16.6 100760 45
2011-07-25 08:52 51°30.646 2°52.789 -999 25 16.6 100760 47
2011-07-25 08:53 51°30.82 2°52.782 -999 270 16.6 100760 47
2011-07-25 08:54 51°30.928 2°52.787 -999 25 16.6 100760 46
2011-07-25 08:55 51°31.028 2°52.78 -999 262 16.6 100750 46
2011-07-25 08:56 51°31.122 2°52.717 4.2 260 16.6 100760 46
2011-07-25 08:57 51°31.22 2°52.647 4.4 252 16.6 100760 47
2011-07-25 08:58 51°31.273 2°52.587 6.2 26 16.7 100750 45
2011-07-25 08:59 51°31.28 2°52.548 5.5 317 16.6 100740 46
2011-07-25 09:00 51°31.294 2°52.553 5 323 16.6 100750 45
2011-07-25 09:01 51°31.31 2°52.563 4.6 325 16.6 100770 47
2011-07-25 09:02 51°31.314 2°52.571 5.1 333 16.5 100760 45
2011-07-25 09:03 51°31.308 2°52.576 5.1 340 16.5 100760 45
2011-07-25 09:04 51°31.306 2°52.58 4.9 335 16.5 100760 47
2011-07-25 09:05 51°31.306 2°52.581 6.1 326 16.5 100760 47
2011-07-25 09:06 51°31.308 2°52.579 5.2 330 16.5 100760 47
2011-07-25 09:07 51°31.31 2°52.575 4.7 319 16.5 100760 46
2011-07-25 09:08 51°31.311 2°52.574 5.4 326 16.6 100760 45
2011-07-25 09:09 51°31.312 2°52.574 7.2 325 16.6 100750 45
2011-07-25 09:10 51°31.311 2°52.574 5.3 326 16.6 100750 47
2011-07-25 09:11 51°31.311 2°52.576 5.9 327 16.5 100760 47
2011-07-25 09:12 51°31.311 2°52.575 5.9 329 16.5 100750 46
2011-07-25 09:13 51°31.311 2°52.575 5.6 330 16.5 100750 47
2011-07-25 09:14 51°31.311 2°52.576 5.1 326 16.5 100760 47
2011-07-25 09:15 51°31.311 2°52.575 6.6 322 16.5 100770 46
2011-07-25 09:16 51°31.311 2°52.574 5.6 325 16.5 100770 46
2011-07-25 09:17 51°31.311 2°52.574 5.4 328 16.5 100770 48
2011-07-25 09:18 51°31.312 2°52.574 5.9 324 16.5 100760 48
2011-07-25 09:19 51°31.312 2°52.573 4.9 330 16.5 100760 46
2011-07-25 09:20 51°31.311 2°52.573 5.7 329 16.5 100760 47
2011-07-25 09:21 51°31.31 2°52.575 5.3 325 16.5 100780 46
2011-07-25 09:22 51°31.311 2°52.576 5.5 330 16.5 100780 46
2011-07-25 09:23 51°31.311 2°52.574 5.5 324 16.5 100760 46
2011-07-25 09:24 51°31.311 2°52.574 5.4 325 16.6 100770 48
2011-07-25 09:25 51°31.311 2°52.574 5.3 322 16.6 100770 47
2011-07-25 09:26 51°31.312 2°52.574 4.9 326 16.7 100780 47
2011-07-25 09:27 51°31.311 2°52.573 5.7 325 16.7 100760 46
2011-07-25 09:28 51°31.312 2°52.574 5 328 16.6 100770 45
2011-07-25 09:29 51°31.311 2°52.574 5.3 329 16.6 100760 47
2011-07-25 09:30 51°31.311 2°52.575 5 327 16.6 100790 46
2011-07-25 09:31 51°31.311 2°52.575 5.2 324 16.7 100780 44
2011-07-25 09:32 51°31.31 2°52.575 6.6 325 16.8 100790 47
2011-07-25 09:33 51°31.31 2°52.575 6 327 16.8 100780 47
2011-07-25 09:34 51°31.311 2°52.576 5.3 328 16.7 100780 45
2011-07-25 09:35 51°31.311 2°52.575 5.9 324 16.7 100780 47
2011-07-25 09:36 51°31.311 2°52.575 4.8 318 16.8 100760 47
2011-07-25 09:37 51°31.313 2°52.572 5.7 321 16.8 100770 47
2011-07-25 09:38 51°31.312 2°52.572 5.3 321 16.8 100780 48
2011-07-25 09:39 51°31.311 2°52.574 5.2 330 16.9 100790 46
2011-07-25 09:40 51°31.31 2°52.577 5.8 329 16.9 100790 47
2011-07-25 09:41 51°31.31 2°52.576 5.4 327 16.8 100790 48
2011-07-25 09:42 51°31.311 2°52.575 5.8 323 16.9 100790 46
2011-07-25 09:43 51°31.312 2°52.574 6 326 16.9 100770 47
2011-07-25 09:44 51°31.312 2°52.572 5 329 16.9 100790 46
2011-07-25 09:45 51°31.312 2°52.574 5.6 327 16.9 100790 47
2011-07-25 09:46 51°31.311 2°52.574 4.8 327 17 100790 48
2011-07-25 09:47 51°31.305 2°52.571 5.9 324 17 100770 45
2011-07-25 09:48 51°31.299 2°52.562 5.7 326 17 100790 46
2011-07-25 09:49 51°31.294 2°52.551 6.3 324 17 100770 46
2011-07-25 09:50 51°31.293 2°52.549 4.6 325 17 100770 48
2011-07-25 09:51 51°31.297 2°52.552 4.9 321 17.1 100790 47
2011-07-25 09:52 51°31.302 2°52.555 5.2 322 17 100770 46
2011-07-25 09:53 51°31.305 2°52.553 5.3 323 17 100780 46
2011-07-25 09:54 51°31.305 2°52.547 5.7 322 17 100780 46
2011-07-25 09:55 51°31.297 2°52.541 5 332 17 100790 44
2011-07-25 09:56 51°31.263 2°52.505 7.9 327 17 100780 48
2011-07-25 09:57 51°31.189 2°52.393 10.1 325 17 100780 47
2011-07-25 09:58 51°31.075 2°52.23 11.8 339 17 100770 47
2011-07-25 09:59 51°30.933 2°52.032 8.1 337 17 100760 47
2011-07-25 10:00 51°30.787 2°51.829 9.9 338 16.9 100760 47
2011-07-25 10:01 51°30.64 2°51.633 9.8 340 16.8 100760 46
2011-07-25 10:02 51°30.494 2°51.433 10 340 16.7 100750 48
2011-07-25 10:03 51°30.347 2°51.24 9.3 341 16.6 100760 45
2011-07-25 10:04 51°30.2 2°51.041 10.8 341 16.6 100760 48
2011-07-25 10:05 51°30.049 2°50.844 10.7 337 16.7 100770 47
2011-07-25 10:06 51°29.899 2°50.647 10.4 337 16.7 100760 48
2011-07-25 10:07 51°29.75 2°50.451 9 337 16.7 100760 48
2011-07-25 10:08 51°29.601 2°50.251 7.9 337 16.7 100770 47
2011-07-25 10:09 51°29.452 2°50.049 8.5 339 16.6 100760 47
2011-07-25 10:10 51°29.301 2°49.851 8.9 336 16.6 100770 47
2011-07-25 10:11 51°29.151 2°49.65 10.5 336 16.6 100770 46
2011-07-25 10:12 51°29 2°49.448 9.6 333 16.6 100760 47
2011-07-25 10:13 51°28.849 2°49.25 8.7 337 16.7 100770 47
2011-07-25 10:14 51°28.7 2°49.052 4.9 335 16.7 100760 48
2011-07-25 10:15 51°28.55 2°48.854 9 336 16.7 100760 47
2011-07-25 10:16 51°28.399 2°48.66 9.4 338 16.7 100760 46
2011-07-25 10:17 51°28.252 2°48.455 12 338 16.7 100760 47
2011-07-25 10:18 51°28.103 2°48.254 9.7 336 16.8 100750 47
2011-07-25 10:19 51°27.951 2°48.058 10.4 340 16.8 100760 46
2011-07-25 10:20 51°27.8 2°47.859 10.8 339 16.8 100770 47
2011-07-25 10:21 51°27.65 2°47.66 8.9 337 16.8 100760 47
2011-07-25 10:22 51°27.5 2°47.454 7.9 336 16.9 100750 46
2011-07-25 10:23 51°27.35 2°47.248 11.7 335 17 100760 47
2011-07-25 10:24 51°27.197 2°47.046 8.1 337 16.9 100760 45
2011-07-25 10:25 51°27.046 2°46.837 9.7 334 16.9 100760 46
2011-07-25 10:26 51°26.896 2°46.625 11.4 334 16.9 100760 47
2011-07-25 10:27 51°26.745 2°46.414 8.4 338 16.8 100750 45
2011-07-25 10:28 51°26.592 2°46.208 7.9 337 16.9 100760 47
2011-07-25 10:29 51°26.494 2°46.063 6.4 338 17 100780 47
2011-07-25 10:30 51°26.422 2°45.969 5.9 342 16.9 100780 47
2011-07-25 10:31 51°26.364 2°45.893 4.7 343 16.9 100780 47
2011-07-25 10:32 51°26.313 2°45.825 5.3 344 16.8 100790 46
2011-07-25 10:33 51°26.266 2°45.76 4.5 344 16.8 100780 46
2011-07-25 10:34 51°26.222 2°45.691 4.6 343 16.7 100780 47
2011-07-25 10:35 51°26.177 2°45.626 4.7 344 16.7 100780 44
2011-07-25 10:36 51°26.129 2°45.564 5.4 344 16.6 100780 47
2011-07-25 10:37 51°26.081 2°45.501 5.7 349 16.7 100770 46
2011-07-25 10:38 51°26.034 2°45.438 5.3 347 16.7 100770 46
2011-07-25 10:39 51°25.989 2°45.372 5.2 347 16.7 100780 46
2011-07-25 10:40 51°25.935 2°45.291 6.9 341 16.6 100770 48
2011-07-25 10:41 51°25.866 2°45.192 7.3 347 16.6 100770 48
2011-07-25 10:42 51°25.789 2°45.096 7.7 347 16.6 100770 48
2011-07-25 10:43 51°25.713 2°44.995 7 347 16.5 100770 45
2011-07-25 10:44 51°25.637 2°44.896 7.2 346 16.5 100770 47
2011-07-25 10:45 51°25.562 2°44.796 6.7 346 16.4 100780 47
2011-07-25 10:46 51°25.488 2°44.691 6.7 348 16.4 100770 47
2011-07-25 10:47 51°25.413 2°44.589 6.3 344 16.4 100780 47
2011-07-25 10:48 51°25.336 2°44.494 6.5 342 16.4 100770 47
2011-07-25 10:49 51°25.259 2°44.398 6.6 343 16.4 100770 48
2011-07-25 10:50 51°25.185 2°44.299 6.1 344 16.4 100770 48
2011-07-25 10:51 51°25.111 2°44.202 5.8 347 16.4 100780 45
2011-07-25 10:52 51°25.036 2°44.102 6.8 351 16.4 100790 48
2011-07-25 10:53 51°24.959 2°44.006 6.6 344 16.3 100780 48
2011-07-25 10:54 51°24.883 2°43.909 5.3 346 16.3 100780 47
2011-07-25 10:55 51°24.808 2°43.81 5.9 349 16.3 100770 47
2011-07-25 10:56 51°24.736 2°43.712 6 352 16.3 100780 48
2011-07-25 10:57 51°24.683 2°43.658 4.8 -999 16.3 100780 47
2011-07-25 10:58 51°24.659 2°43.666 2.8 28 16.2 100800 48
2011-07-25 10:59 51°24.664 2°43.678 2.9 34 16.2 100790 45
2011-07-25 11:00 51°24.669 2°43.693 2.4 37 16.3 100790 47
2011-07-25 11:01 51°24.672 2°43.712 3.3 39 16.3 100790 47
2011-07-25 11:02 51°24.675 2°43.734 4 41 16.3 100800 47
2011-07-25 11:03 51°24.676 2°43.757 3.1 39 16.3 100800 46
2011-07-25 11:04 51°24.676 2°43.778 0.3 36 16.3 100800 48
2011-07-25 11:05 51°24.675 2°43.799 4.1 26 16.3 100790 48
2011-07-25 11:06 51°24.648 2°43.807 4.4 358 16.3 100800 48
2011-07-25 11:07 51°24.629 2°43.752 4.2 327 16.3 100780 47
2011-07-25 11:08 51°24.646 2°43.709 4.2 317 16.3 100790 48
2011-07-25 11:09 51°24.664 2°43.694 4.3 24 16.3 100780 48
2011-07-25 11:10 51°24.667 2°43.708 0.1 251 16.3 100800 48
2011-07-25 11:11 51°24.668 2°43.721 4.6 256 16.4 100790 47
2011-07-25 11:12 51°24.669 2°43.734 4.3 254 16.5 100800 48
2011-07-25 11:13 51°24.672 2°43.748 5.4 255 16.6 100800 46
2011-07-25 11:14 51°24.674 2°43.761 5.1 259 16.7 100780 48
2011-07-25 11:15 51°24.675 2°43.775 4.7 262 16.7 100800 45
2011-07-25 11:16 51°24.688 2°43.789 4.8 246 16.7 100790 48
2011-07-25 11:17 51°24.723 2°43.756 6.3 323 16.6 100780 48
2011-07-25 11:18 51°24.722 2°43.698 4.8 349 16.6 100780 47
2011-07-25 11:19 51°24.686 2°43.679 5.2 10 16.5 100790 48
2011-07-25 11:20 51°24.662 2°43.685 3.8 15 16.4 100800 46
2011-07-25 11:21 51°24.668 2°43.7 5 19 16.4 100790 48
2011-07-25 11:22 51°24.673 2°43.715 5.1 34 16.4 100800 48
2011-07-25 11:23 51°24.675 2°43.729 4.2 36 16.4 100800 45
2011-07-25 11:24 51°24.675 2°43.744 4.3 35 16.4 100800 46
2011-07-25 11:25 51°24.674 2°43.76 3.9 32 16.4 100800 46
2011-07-25 11:26 51°24.671 2°43.775 4.3 25 16.4 100800 48
2011-07-25 11:27 51°24.667 2°43.791 4.6 26 16.5 100800 48
2011-07-25 11:28 51°24.652 2°43.8 4.5 5 16.4 100810 47
2011-07-25 11:29 51°24.626 2°43.773 5.9 341 16.4 100790 46
2011-07-25 11:30 51°24.632 2°43.711 6.6 319 16.4 100810 48
2011-07-25 11:31 51°24.658 2°43.686 6.5 243 16.4 100790 47
2011-07-25 11:32 51°24.669 2°43.691 5.8 256 16.5 100800 47
2011-07-25 11:33 51°24.671 2°43.704 4.1 263 16.6 100810 48
2011-07-25 11:34 51°24.671 2°43.716 5.2 270 16.7 100810 46
2011-07-25 11:35 51°24.671 2°43.731 4.1 28 16.6 100810 47
2011-07-25 11:36 51°24.672 2°43.745 5.1 270 16.6 100810 46
2011-07-25 11:37 51°24.671 2°43.76 5.6 21 16.6 100810 47
2011-07-25 11:38 51°24.669 2°43.774 5 270 16.5 100800 48
2011-07-25 11:39 51°24.668 2°43.788 3.9 267 16.5 100810 45
2011-07-25 11:40 51°24.669 2°43.802 4.5 261 16.5 100810 47
2011-07-25 11:41 51°24.671 2°43.814 5.5 254 16.6 100800 48
2011-07-25 11:42 51°24.673 2°43.825 5.3 250 16.7 100810 46
2011-07-25 11:43 51°24.677 2°43.836 5.5 247 16.7 100810 48
2011-07-25 11:44 51°24.686 2°43.843 4.7 21 16.7 100810 48
2011-07-25 11:45 51°24.698 2°43.829 5.9 325 16.6 100810 46
2011-07-25 11:46 51°24.714 2°43.739 7.7 330 16.6 100800 47
2011-07-25 11:47 51°24.718 2°43.638 5.3 343 16.6 100800 46
2011-07-25 11:48 51°24.698 2°43.594 6.9 358 16.5 100800 46
2011-07-25 11:49 51°24.687 2°43.583 4.7 2 16.4 100790 46
2011-07-25 11:50 51°24.679 2°43.579 3.7 4 16.4 100810 48
2011-07-25 11:51 51°24.669 2°43.575 5.5 9 16.3 100800 47
2011-07-25 11:52 51°24.632 2°43.585 3.6 33 16.3 100800 46
2011-07-25 11:53 51°24.621 2°43.652 -999 25 16.4 100810 48
2011-07-25 11:54 51°24.654 2°43.705 -999 259 16.4 100810 47
2011-07-25 11:55 51°24.668 2°43.722 -999 261 16.4 100810 46
2011-07-25 11:56 51°24.67 2°43.729 -999 265 16.4 100810 47
2011-07-25 11:57 51°24.67 2°43.738 -999 261 16.5 100800 47
2011-07-25 11:58 51°24.669 2°43.747 -999 264 16.6 100810 47
2011-07-25 11:59 51°24.667 2°43.754 -999 265 16.5 100800 47
2011-07-25 12:00 51°24.663 2°43.759 -999 263 16.5 100810 47
2011-07-25 12:01 51°24.659 2°43.765 4.8 262 16.6 100810 47
2011-07-25 12:02 51°24.654 2°43.771 4.3 261 16.6 100810 46
2011-07-25 12:03 51°24.649 2°43.778 4.3 268 16.6 100810 45
2011-07-25 12:04 51°24.642 2°43.783 -999 266 16.6 100800 47
2011-07-25 12:05 51°24.636 2°43.788 -999 267 16.5 100810 47
2011-07-25 12:06 51°24.629 2°43.793 -999 267 16.5 100810 47
2011-07-25 12:07 51°24.628 2°43.803 -999 264 16.4 100820 46
2011-07-25 12:08 51°24.655 2°43.858 -999 25 16.5 100810 47
2011-07-25 12:09 51°24.65 2°43.957 2.8 36 16.5 100810 47
2011-07-25 12:10 51°24.585 2°44.037 4.6 23 16.6 100810 46
2011-07-25 12:11 51°24.466 2°44.154 4.9 14 16.6 100800 44
2011-07-25 12:12 51°24.308 2°44.313 4.5 7 16.5 100810 47
2011-07-25 12:13 51°24.125 2°44.48 3.9 2 16.4 100810 46
2011-07-25 12:14 51°23.941 2°44.659 5.2 356 16.4 100800 46
2011-07-25 12:15 51°23.759 2°44.844 5 358 16.4 100800 48
2011-07-25 12:16 51°23.563 2°44.985 7.3 1 16.4 100810 46
2011-07-25 12:17 51°23.369 2°45.138 5.8 2 16.3 100810 47
2011-07-25 12:18 51°23.178 2°45.298 5.1 4 16.3 100800 46
2011-07-25 12:19 51°22.988 2°45.463 4.1 360 16.2 100800 47
2011-07-25 12:20 51°22.795 2°45.616 4.8 2 16.2 100800 47
2011-07-25 12:21 51°22.606 2°45.775 4.5 -999 16.2 100800 48
2011-07-25 12:22 51°22.416 2°45.933 4.7 4 16.2 100800 48
2011-07-25 12:23 51°22.228 2°46.091 4.7 356 16.3 100800 48
2011-07-25 12:24 51°22.047 2°46.272 5.2 357 16.3 100800 48
2011-07-25 12:25 51°21.866 2°46.457 5 357 16.2 100810 48
2011-07-25 12:26 51°21.682 2°46.627 4.9 3 16.2 100810 48
2011-07-25 12:27 51°21.498 2°46.798 5 359 16.2 100800 47
2011-07-25 12:28 51°21.333 2°47.007 4.4 5 16.1 100810 48
2011-07-25 12:29 51°21.168 2°47.22 4.2 351 16.2 100800 46
2011-07-25 12:30 51°20.998 2°47.42 4.3 6 16.2 100800 48
2011-07-25 12:31 51°20.833 2°47.63 4.6 359 16.2 100810 48
2011-07-25 12:32 51°20.666 2°47.832 3.3 1 16.2 100800 48
2011-07-25 12:33 51°20.502 2°48.041 4.4 1 16.1 100810 46
2011-07-25 12:34 51°20.335 2°48.248 4.4 359 16.1 100800 48
2011-07-25 12:35 51°20.166 2°48.459 3.9 4 16.1 100790 45
2011-07-25 12:36 51°19.995 2°48.662 4.4 357 16.1 100800 46
2011-07-25 12:37 51°19.822 2°48.862 4.8 358 16.2 100800 46
2011-07-25 12:38 51°19.652 2°49.065 5 357 16.2 100800 46
2011-07-25 12:39 51°19.481 2°49.269 3.8 359 16.1 100800 48
2011-07-25 12:40 51°19.318 2°49.477 3.6 2 16.1 100800 48
2011-07-25 12:41 51°19.15 2°49.678 4.2 354 16.1 100800 46
2011-07-25 12:42 51°18.986 2°49.873 4.2 358 16.2 100800 46
2011-07-25 12:43 51°18.819 2°50.069 4 359 16.2 100810 44
2011-07-25 12:44 51°18.648 2°50.257 4.5 358 16.1 100800 47
2011-07-25 12:45 51°18.479 2°50.454 3.6 353 16.1 100810 48
2011-07-25 12:46 51°18.308 2°50.651 4.2 358 16.1 100810 46
2011-07-25 12:47 51°18.132 2°50.843 3.3 5 16.1 100800 46
2011-07-25 12:48 51°17.965 2°51.053 2.1 355 16.1 100810 48
2011-07-25 12:49 51°17.82 2°51.287 3.3 351 16.2 100810 48
2011-07-25 12:50 51°17.68 2°51.526 3.8 355 16.2 100800 48
2011-07-25 12:51 51°17.545 2°51.775 0.1 356 16.1 100810 46
2011-07-25 12:52 51°17.411 2°52.028 3.3 352 16.1 100810 46
2011-07-25 12:53 51°17.258 2°52.258 3 352 16.1 100810 46
2011-07-25 12:54 51°17.094 2°52.469 4 355 16.2 100810 48
2011-07-25 12:55 51°16.914 2°52.649 4.6 355 16.1 100800 47
2011-07-25 12:56 51°16.729 2°52.806 3.4 357 16.1 100800 48
2011-07-25 12:57 51°16.538 2°52.959 5.5 355 16.1 100810 48
2011-07-25 12:58 51°16.345 2°53.102 5.6 355 16.1 100800 47
2011-07-25 12:59 51°16.158 2°53.261 4.2 358 16.1 100800 48
2011-07-25 13:00 51°15.967 2°53.411 4.4 355 16.2 100800 46
2011-07-25 13:01 51°15.773 2°53.553 4.2 356 16.2 100810 46
2011-07-25 13:02 51°15.581 2°53.699 4.3 358 16.2 100810 46
2011-07-25 13:03 51°15.406 2°53.885 3.7 1 16.3 100810 47
2011-07-25 13:04 51°15.25 2°54.104 1.4 355 16.3 100810 46
2011-07-25 13:05 51°15.087 2°54.314 2.7 2 16.3 100810 48
2011-07-25 13:06 51°14.92 2°54.513 0.2 4 16.2 100810 47
2011-07-25 13:07 51°14.752 2°54.703 -999 359 16.2 100810 47
2011-07-25 13:08 51°14.583 2°54.897 1.7 4 16.3 100810 46
2011-07-25 13:09 51°14.432 2°55.109 2.5 353 16.3 100810 47
2011-07-25 13:10 51°14.274 2°55.288 0.7 358 16.3 100810 47
2011-07-25 13:11 51°14.148 2°55.395 1 14 16.4 100810 48
2011-07-25 13:12 51°14.031 2°55.482 0.1 15 16.5 100810 47
2011-07-25 13:13 51°13.911 2°55.57 1.4 333 16.5 100810 47
2011-07-25 13:14 51°13.811 2°55.649 0.3 30 16.6 100810 47
2011-07-25 13:15 51°13.737 2°55.747 0.1 24 16.7 100810 47
2011-07-25 13:16 51°13.682 2°55.85 -999 25 16.8 100810 47
2011-07-25 13:17 51°13.641 2°55.943 2.7 25 16.8 100810 47
2011-07-25 13:18 51°13.632 2°56.012 0.9 21 16.8 100810 47